GW5569 Weather Reports


Display with metric or nautical units.
time (UTC)temp
F
wind
direction
speed
MPH
gust
MPH
rain 1hr
in
rain 24hr
in
rain mn
in
humidity
%
barometer
mb
20260505124529 64 318 0.0 3.0 0.00 0.00 0.00 60 1011.8
20260505123051 62 215 0.0 1.0 0.00 0.00 0.00 65 1011.8
20260505121528 60 0 0.0 2.0 0.00 0.00 0.00 80 1011.9
20260505120031 57 0 0.0 0.0 0.00 0.00 0.00 76 1011.8
20260505114529 55 0 0.0 0.0 0.00 0.00 0.00 78 1011.8
20260505113036 54 0 0.0 0.0 0.00 0.00 0.00 80 1011.8
20260505111548 53 0 0.0 0.0 0.00 0.00 0.00 81 1011.8
20260505100034 53 0 0.0 0.0 0.00 0.00 0.00 77 1011.2
20260505094531 53 0 0.0 0.0 0.00 0.00 0.00 77 1011.3
20260505093031 53 0 0.0 0.0 0.00 0.00 0.00 75 1011.1
20260505091533 54 0 0.0 0.0 0.00 0.00 0.00 74 1011.0
20260505090033 55 0 0.0 0.0 0.00 0.00 0.00 73 1010.9
20260505084532 56 0 0.0 0.0 0.00 0.00 0.00 72 1010.8
20260505083035 56 0 0.0 0.0 0.00 0.00 0.00 73 1010.9
20260505081533 55 0 0.0 1.0 0.00 0.00 0.00 74 1011.0
20260505080035 54 0 0.0 0.0 0.00 0.00 0.00 75 1011.1
20260505074529 54 0 0.0 0.0 0.00 0.00 0.00 75 1010.9
20260505073030 53 0 0.0 0.0 0.00 0.00 0.00 75 1010.8
20260505071536 54 0 0.0 0.0 0.00 0.00 0.00 74 1010.8
20260505070033 54 0 0.0 0.0 0.00 0.00 0.00 73 1010.7
20260505064542 55 0 0.0 0.0 0.00 0.00 0.00 71 1010.7
20260505063030 55 0 0.0 0.0 0.00 0.00 0.00 70 1010.7
20260505061536 55 0 0.0 0.0 0.00 0.00 0.00 70 1010.5
20260505060031 56 0 0.0 0.0 0.00 0.00 0.00 69 1010.7
20260505054528 56 0 0.0 0.0 0.00 0.00 0.00 68 1010.8
20260505053029 57 0 0.0 0.0 0.00 0.00 0.00 67 1011.0
20260505051528 57 0 0.0 0.0 0.00 0.00 0.00 65 1010.9
20260505041532 58 0 0.0 1.0 0.00 0.00 0.00 62 1011.1
20260505040031 59 0 0.0 1.0 0.00 0.00 0.00 61 1011.0
20260505034533 59 0 0.0 1.0 0.00 0.00 0.00 60 1011.1
20260505033031 59 0 0.0 1.0 0.00 0.00 0.00 58 1011.1
20260505031530 60 0 0.0 1.0 0.00 0.00 0.00 57 1011.2
20260505030028 60 0 0.0 2.0 0.00 0.00 0.00 55 1011.2
20260505024539 60 0 0.0 1.0 0.00 0.00 0.00 53 1011.3
20260505023027 60 0 0.0 1.0 0.00 0.00 0.00 51 1011.4
20260505021537 61 0 0.0 0.0 0.00 0.00 0.00 48 1011.4
20260505020028 62 0 0.0 1.0 0.00 0.00 0.00 56 1011.5
20260505014533 62 0 0.0 1.0 0.00 0.00 0.00 43 1011.4
20260505013031 62 0 0.0 2.0 0.00 0.00 0.00 42 1011.1
20260505011531 62 0 0.0 0.0 0.00 0.00 0.00 42 1011.1
20260505010031 62 0 0.0 1.0 0.00 0.00 0.00 40 1011.0
20260505004531 63 0 0.0 0.0 0.00 0.00 0.00 38 1010.7
20260505003027 65 0 0.0 0.0 0.00 0.00 0.00 36 1010.7
20260505001534 66 329 0.0 1.0 0.00 0.00 0.00 34 1010.5
20260505000038 67 0 0.0 4.0 0.00 0.00 0.00 32 1010.4
20260504234528 68 0 0.0 4.0 0.00 0.00 0.00 31 1010.2
20260504233029 69 200 0.0 5.0 0.00 0.00 0.00 29 1010.1
20260504231540 69 0 0.0 4.0 0.00 0.00 0.00 29 1010.0
20260504230027 70 0 0.0 2.0 0.00 0.00 0.00 28 1010.0
20260504224534 71 60 1.0 5.0 0.00 0.00 0.00 27 1009.8
20260504223028 71 235 1.0 11.0 0.00 0.00 0.00 26 1010.0
20260504221531 72 160 0.0 3.0 0.00 0.00 0.00 37 1009.9
20260504220034 72 0 1.0 5.0 0.00 0.00 0.00 34 1009.9
20260504214530 74 0 0.0 5.0 0.00 0.00 0.00 24 1010.2
20260504213028 75 0 0.0 5.0 0.00 0.00 0.00 23 1010.1
20260504211530 75 152 1.0 8.0 0.00 0.00 0.00 22 1010.1
20260504210043 75 302 0.0 8.0 0.00 0.00 0.00 32 1010.4
20260504204528 75 295 0.0 6.0 0.00 0.00 0.00 22 1010.1
20260504203032 75 122 1.0 5.0 0.00 0.00 0.00 22 1010.2
20260504201529 75 325 1.0 7.0 0.00 0.00 0.00 21 1010.1
20260504200029 75 286 2.0 6.0 0.00 0.00 0.00 31 1010.0
20260504194542 76 0 0.0 9.0 0.00 0.00 0.00 32 1010.4
20260504193030 75 294 1.0 5.0 0.00 0.00 0.00 31 1010.7
20260504191540 76 0 1.0 7.0 0.00 0.00 0.00 33 1010.8
20260504190032 75 305 0.0 6.0 0.00 0.00 0.00 32 1010.9
20260504184536 75 0 0.0 8.0 0.00 0.00 0.00 33 1011.1
20260504183030 74 198 1.0 9.0 0.00 0.00 0.00 33 1011.4
20260504181528 74 300 0.0 8.0 0.00 0.00 0.00 36 1011.6
20260504180042 74 0 1.0 6.0 0.00 0.00 0.00 26 1011.7
20260504174530 73 183 2.0 9.0 0.00 0.00 0.00 24 1011.8
20260504173029 73 177 1.0 9.0 0.00 0.00 0.00 35 1012.0
20260504171529 72 257 0.0 7.0 0.00 0.00 0.00 26 1012.0